FW6321 Weather Reports


Display with metric or nautical units.
time (UTC)temp
F
wind
direction
speed
MPH
gust
MPH
rain 1hr
in
rain 24hr
in
rain mn
in
humidity
%
barometer
mb
20260507144809 60 72 5.0 8.0 0.00 0.00 0.00 60 1016.7
20260507143734 60 60 5.0 9.0 0.00 0.00 0.00 59 1016.8
20260507143308 60 78 5.0 9.0 0.00 0.00 0.00 60 1016.8
20260507142234 60 73 3.0 7.0 0.00 0.00 0.00 60 1016.8
20260507141732 60 48 4.0 8.0 0.00 0.00 0.00 59 1016.8
20260507141230 60 83 3.0 8.0 0.00 0.00 0.00 58 1016.8
20260507140758 61 39 3.0 10.0 0.00 0.00 0.00 56 1016.8
20260507135731 61 47 4.0 10.0 0.00 0.00 0.00 54 1016.9
20260507135339 62 32 4.0 10.0 0.00 0.00 0.00 51 1016.9
20260507133813 62 339 4.0 10.0 0.00 0.00 0.00 52 1017.0
20260507132753 61 260 4.0 10.0 0.00 0.00 0.00 47 1016.9
20260507131726 62 4 6.0 11.0 0.00 0.00 0.00 54 1016.9
20260507131221 62 12 4.0 10.0 0.00 0.00 0.00 53 1016.8
20260507130731 60 75 3.0 7.0 0.00 0.00 0.00 57 1016.8
20260507130252 59 73 3.0 8.0 0.00 0.00 0.00 59 1016.8
20260507125257 60 10 3.0 9.0 0.00 0.00 0.00 55 1016.9
20260507124225 60 15 5.0 11.0 0.00 0.00 0.00 55 1016.9
20260507123733 61 21 4.0 11.0 0.00 0.00 0.00 59 1016.9
20260507123228 60 29 4.0 9.0 0.00 0.00 0.00 54 1016.8
20260507122725 59 38 6.0 11.0 0.00 0.00 0.00 56 1016.9
20260507122223 60 15 6.0 13.0 0.00 0.00 0.00 57 1016.9
20260507121723 61 45 5.0 13.0 0.00 0.00 0.00 60 1016.9
20260507121219 61 325 4.0 11.0 0.00 0.00 0.00 62 1016.9
20260507120732 61 342 3.0 7.0 0.00 0.00 0.00 66 1016.9
20260507120221 59 67 3.0 8.0 0.00 0.00 0.00 58 1016.9
20260507115716 59 19 4.0 9.0 0.00 0.00 0.00 62 1017.0
20260507115218 60 82 4.0 9.0 0.00 0.00 0.00 60 1017.0
20260507114715 61 355 4.0 9.0 0.00 0.00 0.00 62 1017.0
20260507114217 60 52 4.0 9.0 0.00 0.00 0.00 62 1017.0
20260507113719 60 49 4.0 9.0 0.00 0.00 0.00 61 1017.1
20260507113250 61 58 6.0 11.0 0.00 0.00 0.00 62 1017.0
20260507112211 60 339 4.0 12.0 0.00 0.00 0.00 67 1017.0
20260507111712 60 29 4.0 11.0 0.00 0.00 0.00 67 1017.1
20260507111210 60 38 5.0 11.0 0.00 0.00 0.00 63 1017.1
20260507110714 61 32 4.0 10.0 0.00 0.00 0.00 68 1017.2
20260507110211 61 8 3.0 9.0 0.00 0.00 0.00 67 1017.2
20260507105712 60 97 3.0 11.0 0.00 0.00 0.00 66 1017.2
20260507105210 61 17 4.0 11.0 0.00 0.00 0.00 69 1017.3
20260507104710 60 66 6.0 13.0 0.00 0.00 0.00 67 1017.3
20260507104213 60 16 5.0 13.0 0.00 0.00 0.00 68 1017.3
20260507103714 60 312 3.0 12.0 0.00 0.00 0.00 69 1017.2
20260507103213 60 55 4.0 10.0 0.00 0.00 0.00 69 1017.3
20260507102710 59 54 4.0 10.0 0.00 0.00 0.00 67 1017.3
20260507102203 59 325 4.0 8.0 0.00 0.00 0.00 70 1017.2
20260507101704 59 12 4.0 10.0 0.00 0.00 0.00 71 1017.2
20260507101205 58 1 5.0 10.0 0.00 0.00 0.00 67 1017.2
20260507100741 58 27 4.0 10.0 0.00 0.00 0.00 68 1017.3
20260507095712 58 12 4.0 10.0 0.00 0.00 0.00 69 1017.2
20260507095224 58 44 5.0 11.0 0.00 0.00 0.00 71 1017.1
20260507094201 58 339 6.0 13.0 0.00 0.00 0.00 69 1017.2
20260507093703 58 31 4.0 10.0 0.00 0.00 0.00 73 1017.1
20260507093304 57 32 4.0 9.0 0.00 0.00 0.00 72 1017.1
20260507091703 57 37 5.0 10.0 0.00 0.00 0.00 73 1017.1
20260507091202 56 330 4.0 9.0 0.00 0.00 0.00 75 1017.1
20260507090702 56 330 3.0 9.0 0.00 0.00 0.00 75 1017.0
20260507090201 56 339 4.0 9.0 0.00 0.00 0.00 75 1017.1
20260507085704 56 339 5.0 10.0 0.00 0.00 0.00 75 1016.9
20260507085202 56 348 5.0 11.0 0.00 0.00 0.00 76 1017.0
20260507084701 56 316 5.0 13.0 0.00 0.00 0.00 75 1017.0
20260507084202 56 325 5.0 13.0 0.00 0.00 0.00 76 1017.0
20260507083802 55 26 4.0 10.0 0.00 0.00 0.00 76 1016.9
20260507082703 55 31 5.0 10.0 0.00 0.00 0.00 77 1017.0
20260507082230 55 335 6.0 10.0 0.00 0.00 0.00 76 1017.0
20260507081201 55 318 5.0 8.0 0.00 0.00 0.00 78 1017.0
20260507080752 55 12 5.0 10.0 0.00 0.00 0.00 79 1017.0
20260507075701 54 4 4.0 8.0 0.00 0.00 0.00 80 1016.9
20260507075200 54 19 4.0 8.0 0.00 0.00 0.00 81 1016.9
20260507074703 53 17 4.0 9.0 0.00 0.00 0.00 82 1016.9
20260507074202 53 287 4.0 9.0 0.00 0.00 0.00 83 1016.8
20260507073702 53 1 5.0 10.0 0.00 0.00 0.00 84 1016.8
20260507073201 53 18 4.0 10.0 0.00 0.00 0.00 85 1016.8
20260507072729 52 22 4.0 9.0 0.00 0.00 0.00 86 1016.8
20260507071702 52 343 4.0 9.0 0.00 0.00 0.00 87 1016.7
20260507071203 51 325 4.0 9.0 0.00 0.00 0.00 87 1016.7
20260507070822 51 33 3.0 7.0 0.00 0.00 0.00 88 1016.7
20260507070503 51 352 3.0 6.0 0.00 0.00 0.00 88 1016.7
20260507063703 50 325 5.0 8.0 0.00 0.00 0.00 90 1016.4
20260507063205 49 330 6.0 9.0 0.00 0.00 0.00 90 1016.4
20260507062702 49 319 5.0 9.0 0.00 0.00 0.00 90 1016.5
20260507062237 49 343 3.0 8.0 0.00 0.00 0.00 91 1016.5
20260507061202 48 330 5.0 9.0 0.00 0.00 0.00 92 1016.4
20260507060729 48 358 5.0 9.0 0.00 0.00 0.00 92 1016.3
20260507055701 47 352 4.0 9.0 0.00 0.00 0.00 93 1016.3
20260507055236 47 345 4.0 9.0 0.00 0.00 0.00 93 1016.2
20260507054201 46 320 3.0 7.0 0.00 0.00 0.00 94 1016.1
20260507053703 46 320 3.0 5.0 0.00 0.00 0.00 94 1016.1
20260507053201 46 330 3.0 6.0 0.00 0.00 0.00 94 1016.1
20260507052728 45 6 3.0 6.0 0.00 0.00 0.00 94 1016.1
20260507051700 45 352 3.0 6.0 0.00 0.00 0.00 94 1016.0
20260507051240 45 350 3.0 5.0 0.00 0.00 0.00 94 1015.9
20260507050203 45 319 3.0 7.0 0.00 0.00 0.00 94 1015.7
20260507045701 45 340 3.0 7.0 0.00 0.00 0.00 94 1015.7
20260507045202 45 325 3.0 5.0 0.00 0.00 0.00 94 1015.6
20260507044703 45 330 3.0 5.0 0.00 0.00 0.00 94 1015.6
20260507044203 45 335 3.0 5.0 0.00 0.00 0.00 94 1015.5
20260507043703 44 305 3.0 5.0 0.00 0.00 0.00 94 1015.5
20260507043203 44 330 3.0 5.0 0.00 0.00 0.00 94 1015.5
20260507042728 44 320 3.0 5.0 0.00 0.00 0.00 94 1015.5
20260507041705 44 325 2.0 4.0 0.00 0.00 0.00 93 1015.4
20260507041204 44 342 3.0 5.0 0.00 0.00 0.00 93 1015.4
20260507040703 44 335 3.0 5.0 0.00 0.00 0.00 93 1015.2
20260507040200 44 315 3.0 4.0 0.00 0.00 0.00 93 1015.3
20260507035703 44 6 3.0 4.0 0.00 0.00 0.00 93 1015.3
20260507035202 45 347 3.0 4.0 0.00 0.01 0.00 93 1015.3
20260507034659 45 321 3.0 4.0 0.00 0.01 0.00 93 1015.2
20260507034156 45 335 3.0 6.0 0.00 0.01 0.00 92 1015.2
20260507033656 45 325 3.0 6.0 0.00 0.01 0.00 92 1015.2
20260507033152 45 346 3.0 6.0 0.00 0.01 0.00 92 1015.2
20260507032653 45 330 3.0 6.0 0.00 0.01 0.00 92 1015.1
20260507032225 46 335 4.0 8.0 0.00 0.01 0.00 92 1015.1
20260507031148 46 319 3.0 5.0 0.00 0.01 0.00 91 1015.1
20260507030647 46 330 2.0 4.0 0.00 0.01 0.00 91 1015.1
20260507030143 46 339 3.0 5.0 0.00 0.01 0.00 91 1015.0
20260507025752 46 347 3.0 5.0 0.00 0.01 0.00 91 1014.9
20260507024141 46 335 3.0 5.0 0.00 0.01 0.00 89 1014.9
20260507023716 46 325 3.0 6.0 0.00 0.01 0.00 89 1014.9
20260507022638 46 341 4.0 7.0 0.00 0.01 0.00 89 1014.9
20260507022139 47 319 4.0 7.0 0.00 0.01 0.00 89 1014.9
20260507021706 47 347 4.0 8.0 0.00 0.01 0.00 88 1014.8
20260507020713 47 330 4.0 10.0 0.00 0.01 0.00 89 1014.7
20260507015637 47 16 5.0 9.0 0.00 0.01 0.00 90 1014.7
20260507015139 47 345 4.0 9.0 0.00 0.01 0.00 90 1014.6
20260507014637 47 0 4.0 9.0 0.00 0.01 0.00 90 1014.7
20260507014137 47 339 5.0 10.0 0.00 0.01 0.00 90 1014.6
20260507013634 47 353 5.0 10.0 0.00 0.01 0.00 91 1014.6
20260507013139 47 347 4.0 8.0 0.00 0.01 0.00 91 1014.6
20260507012636 47 330 4.0 9.0 0.00 0.01 0.00 90 1014.6
20260507012204 47 352 4.0 9.0 0.00 0.01 0.00 90 1014.6
20260507011136 48 7 5.0 9.0 0.00 0.01 0.00 90 1014.6
20260507010636 48 325 5.0 9.0 0.00 0.01 0.00 89 1014.6
20260507010133 48 325 5.0 10.0 0.00 0.01 0.00 89 1014.5
20260507005632 48 325 5.0 10.0 0.00 0.01 0.00 89 1014.5
20260507005134 49 325 5.0 10.0 0.00 0.01 0.00 89 1014.5
20260507004633 49 321 5.0 10.0 0.00 0.01 0.00 88 1014.4
20260507004204 49 359 5.0 11.0 0.00 0.01 0.00 88 1014.4
20260507003131 49 310 4.0 8.0 0.00 0.01 0.00 88 1014.3
20260507002629 49 16 5.0 10.0 0.00 0.01 0.00 88 1014.3
20260507002241 49 347 5.0 10.0 0.00 0.01 0.00 88 1014.2
20260507000629 49 335 5.0 10.0 0.00 0.01 0.00 87 1014.1
20260507000219 50 325 4.0 9.0 0.00 0.01 0.00 87 1014.2
20260506235130 50 330 5.0 11.0 0.00 0.01 0.00 86 1014.1
20260506234628 50 358 4.0 11.0 0.00 0.01 0.00 86 1014.1
20260506234128 50 330 4.0 9.0 0.00 0.01 0.00 86 1014.1
20260506233628 50 352 5.0 10.0 0.00 0.01 0.00 85 1014.0
20260506233128 50 352 5.0 10.0 0.00 0.01 0.00 85 1014.0
20260506232658 50 339 5.0 8.0 0.00 0.01 0.00 84 1013.9
20260506231629 51 303 5.0 9.0 0.00 0.01 0.00 84 1013.9
20260506231130 51 330 5.0 10.0 0.00 0.01 0.00 83 1013.8
20260506230631 51 330 5.0 10.0 0.00 0.01 0.00 83 1013.8
20260506230127 51 352 5.0 10.0 0.00 0.01 0.00 82 1013.8
20260506225701 51 330 5.0 10.0 0.00 0.01 0.00 82 1013.8
20260506224624 52 339 5.0 9.0 0.00 0.01 0.00 82 1013.8
20260506224126 52 339 5.0 10.0 0.00 0.01 0.00 81 1013.8
20260506223625 52 325 4.0 10.0 0.00 0.01 0.00 81 1013.8
20260506223124 52 325 4.0 8.0 0.00 0.01 0.00 80 1013.8
20260506222624 52 3 5.0 11.0 0.00 0.01 0.00 80 1013.8
20260506222128 52 330 6.0 11.0 0.00 0.01 0.00 79 1013.8
20260506221629 52 12 5.0 10.0 0.00 0.01 0.00 79 1013.8
20260506221125 52 355 4.0 9.0 0.00 0.01 0.00 80 1013.7
20260506220628 52 35 4.0 9.0 0.00 0.01 0.00 79 1013.7
20260506220127 53 348 5.0 11.0 0.00 0.01 0.00 79 1013.7
20260506215628 53 354 6.0 11.0 0.00 0.01 0.01 79 1013.6
20260506215125 53 335 5.0 11.0 0.00 0.01 0.01 79 1013.6
20260506214626 53 358 5.0 9.0 0.00 0.01 0.01 80 1013.5
20260506214123 53 339 6.0 10.0 0.00 0.01 0.01 80 1013.5
20260506213624 53 295 6.0 11.0 0.00 0.01 0.01 80 1013.5
20260506213122 53 343 5.0 11.0 0.00 0.01 0.01 80 1013.5
20260506212623 53 345 4.0 10.0 0.00 0.01 0.01 80 1013.5
20260506212122 53 310 3.0 8.0 0.00 0.01 0.01 80 1013.5
20260506211621 53 343 3.0 7.0 0.00 0.01 0.01 79 1013.4
20260506211120 53 325 4.0 8.0 0.00 0.01 0.01 79 1013.3
20260506210622 53 5 3.0 8.0 0.00 0.01 0.01 78 1013.3
20260506210120 53 325 3.0 5.0 0.00 0.01 0.01 77 1013.3
20260506205658 53 317 3.0 5.0 0.00 0.01 0.01 77 1013.2
20260506204619 53 350 5.0 12.0 0.00 0.01 0.01 75 1013.3
20260506204116 53 325 5.0 10.0 0.00 0.01 0.01 74 1013.3
20260506203613 53 318 4.0 10.0 0.00 0.01 0.01 73 1013.3
20260506203115 53 358 3.0 7.0 0.00 0.01 0.01 72 1013.2
20260506202615 53 359 4.0 8.0 0.00 0.01 0.01 71 1013.1
20260506202116 53 354 3.0 8.0 0.00 0.01 0.01 72 1013.1
20260506201617 53 335 3.0 7.0 0.00 0.01 0.01 72 1013.0
20260506201113 53 318 3.0 7.0 0.00 0.01 0.01 72 1013.0
20260506200613 53 350 2.0 4.0 0.00 0.01 0.01 74 1013.0
20260506200220 53 19 1.0 3.0 0.00 0.01 0.01 74 1013.1
20260506194606 53 23 4.0 9.0 0.00 0.01 0.01 75 1013.0
20260506194106 53 31 3.0 6.0 0.00 0.01 0.01 75 1013.0
20260506193606 53 27 2.0 4.0 0.00 0.01 0.01 75 1013.1
20260506193106 53 27 1.0 4.0 0.00 0.01 0.01 75 1013.0
20260506192605 53 62 1.0 4.0 0.00 0.01 0.01 75 1012.9
20260506192105 53 346 1.0 4.0 0.00 0.01 0.01 75 1012.8
20260506191633 53 64 2.0 3.0 0.00 0.01 0.01 75 1012.7
20260506190602 53 60 2.0 3.0 0.00 0.01 0.01 75 1012.6
20260506185603 53 79 1.0 2.0 0.00 0.01 0.01 74 1012.5
20260506185103 53 79 1.0 2.0 0.00 0.01 0.01 73 1012.4
20260506184559 53 79 1.0 3.0 0.00 0.01 0.01 72 1012.2
20260506184102 53 78 2.0 3.0 0.00 0.01 0.01 72 1012.2
20260506183600 53 79 2.0 3.0 0.00 0.01 0.01 73 1012.1
20260506183102 53 79 2.0 3.0 0.00 0.01 0.01 73 1012.1
20260506182601 54 68 1.0 3.0 0.00 0.01 0.01 73 1012.0
20260506182059 53 59 1.0 2.0 0.00 0.01 0.01 72 1012.0
20260506181600 54 59 2.0 3.0 0.00 0.01 0.01 72 1011.9
20260506181103 54 59 2.0 4.0 0.00 0.01 0.01 72 1011.8
20260506180557 54 77 2.0 4.0 0.00 0.01 0.01 72 1011.8
20260506180059 54 77 2.0 3.0 0.00 0.01 0.01 72 1011.8
20260506175635 53 58 2.0 3.0 0.00 0.01 0.01 72 1011.7
20260506174553 54 58 1.0 2.0 0.00 0.01 0.01 73 1011.5
20260506174052 54 58 1.0 4.0 0.00 0.01 0.01 74 1011.5
20260506173554 54 58 2.0 4.0 0.00 0.01 0.01 73 1011.4
20260506173052 54 65 1.0 3.0 0.00 0.01 0.01 74 1011.4
20260506172550 54 56 1.0 3.0 0.00 0.01 0.01 73 1011.3
20260506172051 54 52 2.0 3.0 0.00 0.01 0.01 73 1011.3
20260506171549 54 69 2.0 6.0 0.00 0.01 0.01 73 1011.2
20260506171117 54 70 2.0 6.0 0.00 0.01 0.01 73 1011.2
20260506170046 54 34 4.0 7.0 0.00 0.01 0.01 72 1011.1
20260506165552 54 76 4.0 8.0 0.00 0.01 0.01 71 1011.2
20260506165054 54 48 5.0 8.0 0.00 0.01 0.01 70 1011.1
20260506164622 54 62 6.0 10.0 0.00 0.01 0.01 70 1011.1
20260506163548 55 57 7.0 13.0 0.00 0.01 0.01 69 1011.2
20260506163121 55 62 8.0 13.0 0.00 0.01 0.01 67 1011.1
20260506162045 55 67 6.0 13.0 0.00 0.01 0.01 66 1011.1
20260506161547 55 347 5.0 11.0 0.00 0.01 0.01 69 1011.1
20260506161047 55 29 5.0 11.0 0.00 0.01 0.01 68 1011.1
20260506160543 55 33 5.0 11.0 0.00 0.01 0.01 68 1011.1
20260506160046 55 27 5.0 9.0 0.00 0.01 0.01 70 1011.2
20260506155542 55 71 5.0 10.0 0.00 0.01 0.01 68 1011.2
20260506155059 55 9 5.0 10.0 0.00 0.01 0.01 68 1011.1
20260506154621 55 308 7.0 10.0 0.00 0.01 0.01 68 1011.1
20260506153541 55 22 7.0 14.0 0.00 0.01 0.01 68 1011.1
20260506153048 55 71 6.0 12.0 0.00 0.01 0.01 69 1011.1
20260506152543 55 54 6.0 12.0 0.00 0.01 0.01 69 1011.0
20260506152059 55 51 6.0 12.0 0.00 0.01 0.01 69 1011.1
20260506151541 55 75 6.0 13.0 0.00 0.01 0.01 69 1011.0
20260506151042 55 93 7.0 13.0 0.00 0.01 0.01 69 1011.1
20260506150543 55 50 6.0 13.0 0.00 0.01 0.01 68 1011.1
20260506150042 55 28 6.0 13.0 0.00 0.01 0.01 69 1011.1
20260506145541 55 29 6.0 12.0 0.00 0.01 0.01 69 1011.0